Hourly Data Report for May 24, 2012

All times are specified in Local Standard Time (LST). Add 1 hour to adjust for Daylight Saving Time where and when it is observed.

LONDON A
ONTARIO

43°01'59.000" N
81°09'04.000" W
278.00 m
6144473
71623
YXU

Download Data

Hourly Data (May 2012)
Hourly Data Report for May 24, 2012
Temp Definition
°C
Dew Point Temp Definition
°C
Rel Hum Definition
%
Wind Dir Definition
10's deg

Wind Spd Definition
km/h
Visibility Definition
km
Stn Press Definition
kPa
Hmdx Definition


Wind Chill Definition


Weather Definition


TIME
00:00 14.3 11.5 83 7 5 10.0 98.11     LegendNANA
01:00 14.2 12.6 90 8 7 10.0 98.09     Clear
02:00 14.2 13.6 96 8 14 9.7 98.06     Fog
03:00 14.0 13.4 96 9 12 4.8 98.08     Fog
04:00 14.2 13.4 95 9 10 6.4 98.14     Fog
05:00 13.3 12.8 97 11 9 6.4 98.21     Fog
06:00 15.1 14.5 96 10 10 6.4 98.27     Fog
07:00 18.0 16.0 88 13 16 9.7 98.29     Fog
08:00 21.0 17.1 78 17 14 10.0 98.28 26   LegendNANA
09:00 22.9 17.9 73 16 11 10.0 98.25 29   LegendNANA
10:00 24.7 17.6 64 15 19 10.0 98.23 30   Clear
11:00 25.5 17.1 59 15 22 10.0 98.21 31   LegendNANA
12:00 26.4 17.4 57 15 19 10.0 98.15 32   LegendNANA
13:00 27.0 16.2 51 14 21 10.0 98.10 32   Mainly Clear
14:00 26.7 16.8 54 14 24 10.0 98.10 32   LegendNANA
15:00 27.1 16.6 52 17 31 10.0 98.07 32   LegendNANA
16:00 26.3 16.7 55 16 27 10.0 98.02 31   Mainly Clear
17:00 27.1 16.3 51 17 24 10.0 97.98 32   LegendNANA
18:00 26.3 15.8 52 18 24 10.0 97.94 31   LegendNANA
19:00 25.3 15.5 54 17 23 10.0 97.93 30   Mainly Clear
20:00 23.5 15.2 59 15 16 10.0 97.92 28   LegendNANA
21:00 22.6 16.0 66 14 17 10.0 97.92 27   LegendNANA
22:00 22.0 15.9 68 15 22 10.0 97.94 27   Mainly Clear
23:00 22.8 16.0 65 17 26 10.0 97.99 27   LegendNANA

Notes on Data Quality.

Legend

  • E = Estimated
  • M = Missing
  • NA = Not Available
Date modified: